TimePST,TemperatureF,Dew PointF,Humidity,Sea Level PressureIn,VisibilityMPH,Wind Direction,Wind SpeedMPH,Gust SpeedMPH,PrecipitationIn,Events,Conditions,WindDirDegrees,DateUTC
12:56 AM,51.1,32.0,48,30.01,10.0,SSW,9.2,-,N/A,,Scattered Clouds,200,2012-11-22 08:56:00
1:56 AM,51.1,33.1,50,30.02,10.0,SW,6.9,-,N/A,,Scattered Clouds,220,2012-11-22 09:56:00
2:56 AM,51.1,33.1,50,30.03,10.0,SSW,6.9,-,N/A,,Scattered Clouds,210,2012-11-22 10:56:00
3:56 AM,50.0,32.0,50,30.07,10.0,SSW,10.4,-,N/A,,Scattered Clouds,200,2012-11-22 11:56:00
4:56 AM,48.9,33.1,54,30.06,10.0,SW,5.8,-,N/A,,Scattered Clouds,230,2012-11-22 12:56:00
5:56 AM,48.9,33.1,54,30.08,10.0,SSW,10.4,-,N/A,,Partly Cloudy,200,2012-11-22 13:56:00
6:56 AM,48.9,32.0,52,30.11,10.0,SSW,9.2,-,N/A,,Partly Cloudy,210,2012-11-22 14:56:00
7:56 AM,55.0,33.1,43,30.13,10.0,SW,5.8,-,N/A,,Partly Cloudy,220,2012-11-22 15:56:00
8:56 AM,61.0,32.0,34,30.15,10.0,SSE,3.5,-,N/A,,Partly Cloudy,160,2012-11-22 16:56:00
9:56 AM,63.0,33.1,33,30.15,10.0,South,3.5,-,N/A,,Partly Cloudy,170,2012-11-22 17:56:00
10:56 AM,66.0,30.9,27,30.14,10.0,Calm,Calm,-,N/A,,Partly Cloudy,0,2012-11-22 18:56:00
11:56 AM,69.1,30.0,23,30.12,10.0,Calm,Calm,-,N/A,,Partly Cloudy,0,2012-11-22 19:56:00
12:56 PM,70.0,28.9,22,30.11,10.0,Calm,Calm,-,N/A,,Partly Cloudy,0,2012-11-22 20:56:00
1:56 PM,71.1,28.9,21,30.10,10.0,Calm,Calm,-,N/A,,Clear,0,2012-11-22 21:56:00
2:56 PM,71.1,28.9,21,30.10,10.0,South,4.6,-,N/A,,Clear,170,2012-11-22 22:56:00
3:56 PM,71.1,28.9,21,30.10,10.0,Calm,Calm,-,N/A,,Clear,0,2012-11-22 23:56:00
4:56 PM,66.9,30.9,26,30.12,10.0,Calm,Calm,-,N/A,,Clear,0,2012-11-23 00:56:00
5:56 PM,64.9,32.0,29,30.13,10.0,SW,6.9,-,N/A,,Clear,230,2012-11-23 01:56:00
6:56 PM,62.1,33.1,34,30.15,10.0,SW,6.9,-,N/A,,Clear,230,2012-11-23 02:56:00
7:56 PM,57.9,33.1,39,30.17,10.0,South,9.2,-,N/A,,Clear,190,2012-11-23 03:56:00
8:56 PM,57.0,33.1,40,30.19,10.0,SW,5.8,-,N/A,,Clear,220,2012-11-23 04:56:00
9:56 PM,57.9,33.1,39,30.19,10.0,Variable,4.6,-,N/A,,Clear,0,2012-11-23 05:56:00
10:56 PM,57.0,32.0,39,30.20,10.0,Calm,Calm,-,N/A,,Clear,0,2012-11-23 06:56:00
11:56 PM,55.0,32.0,42,30.21,10.0,SW,5.8,-,N/A,,Clear,220,2012-11-23 07:56:00